EW0195 Weather Reports


Display with metric or nautical units.
time (UTC)temp
F
wind
direction
speed
MPH
gust
MPH
rain 1hr
in
rain 24hr
in
rain mn
in
humidity
%
barometer
mb
20260901052946 73 309 1.0 3.0 0.00 0.00 0.00 93 1017.7
20260901051446 73 322 0.0 2.0 0.00 0.00 0.00 92 1017.8
20260901045950 73 308 0.0 0.0 0.00 0.00 0.00 92 1018.0
20260901044448 72 318 0.0 0.0 0.00 0.00 0.00 91 1018.0
20260901042946 72 281 0.0 0.0 0.00 0.00 0.00 90 1018.1
20260901041447 73 278 0.0 0.0 0.00 0.00 0.00 89 1018.4
20260901035952 73 278 0.0 0.0 0.00 0.00 0.00 89 1018.3
20260901034446 73 277 0.0 0.0 0.00 0.00 0.00 88 1018.4
20260901031446 73 281 0.0 2.0 0.00 0.00 0.00 88 1018.3
20260901025949 73 294 0.0 2.0 0.00 0.00 0.00 88 1018.3
20260901024447 72 301 0.0 0.0 0.00 0.00 0.00 88 1018.5
20260901022947 73 259 0.0 1.0 0.00 0.00 0.00 88 1018.4
20260901021446 73 246 0.0 0.0 0.00 0.00 0.00 87 1018.5
20260901015950 73 284 0.0 3.0 0.00 0.00 0.00 87 1018.4
20260901012946 72 288 0.0 2.0 0.00 0.00 0.00 89 1018.2
20260901011447 73 254 0.0 1.0 0.00 0.00 0.00 88 1018.4
20260901005949 73 254 0.0 0.0 0.00 0.00 0.00 86 1018.4
20260901004447 74 282 1.0 3.0 0.00 0.00 0.00 86 1018.3
20260901002947 74 290 0.0 2.0 0.00 0.00 0.00 87 1018.1
20260901001446 74 246 0.0 1.0 0.00 0.00 0.00 88 1018.0
20260831235950 75 246 0.0 1.0 0.00 0.00 0.00 87 1017.9
20260831234448 75 240 0.0 1.0 0.00 0.00 0.00 86 1018.0
20260831232946 76 208 0.0 1.0 0.00 0.00 0.00 85 1018.0
20260831231447 77 224 0.0 1.0 0.00 0.00 0.00 83 1018.2
20260831225949 77 272 0.0 2.0 0.00 0.00 0.00 81 1018.3
20260831221447 79 264 0.0 1.0 0.00 0.00 0.00 79 1018.7
20260831215950 79 253 0.0 1.0 0.00 0.00 0.00 77 1018.7
20260831214446 80 176 1.0 3.0 0.00 0.00 0.00 77 1018.7
20260831212947 80 245 0.0 2.0 0.00 0.00 0.00 76 1018.7
20260831211446 81 265 1.0 3.0 0.00 0.00 0.00 73 1018.9
20260831205949 83 203 0.0 3.0 0.00 0.00 0.00 71 1018.9
20260831204447 84 255 1.0 3.0 0.00 0.00 0.00 68 1019.0
20260831202946 82 229 2.0 4.0 0.00 0.00 0.00 71 1019.0
20260831201447 81 135 1.0 2.0 0.00 0.00 0.00 72 1019.2
20260831195951 81 279 1.0 3.0 0.00 0.00 0.00 72 1019.2
20260831194447 80 219 1.0 2.0 0.00 0.00 0.00 74 1019.3
20260831192946 80 124 0.0 3.0 0.00 0.00 0.00 72 1019.6
20260831185950 81 202 2.0 6.0 0.00 0.00 0.00 71 1019.8
20260831184446 82 296 0.0 2.0 0.00 0.00 0.00 71 1019.8
20260831182947 82 158 2.0 5.0 0.00 0.00 0.00 70 1019.9
20260831181446 81 261 1.0 4.0 0.00 0.00 0.00 70 1019.8
20260831175950 81 153 1.0 3.0 0.00 0.00 0.00 72 1019.9
20260831174446 80 216 1.0 5.0 0.00 0.00 0.00 70 1020.1
20260831172946 80 6 1.0 4.0 0.00 0.00 0.00 69 1020.2
20260831171447 80 141 0.0 1.0 0.00 0.00 0.00 70 1020.2
20260831165951 79 226 1.0 3.0 0.00 0.00 0.00 71 1020.3
20260831164447 80 278 1.0 3.0 0.00 0.00 0.00 69 1020.3
20260831162947 81 143 0.0 2.0 0.00 0.00 0.00 70 1020.3
20260831161447 79 179 1.0 4.0 0.00 0.00 0.00 70 1020.4
20260831155949 79 188 2.0 4.0 0.00 0.00 0.00 71 1020.3
20260831154446 79 125 1.0 4.0 0.00 0.00 0.00 75 1020.3
20260831151446 77 231 2.0 5.0 0.00 0.00 0.00 76 1020.4
20260831145950 75 111 1.0 5.0 0.00 0.00 0.00 81 1020.5
20260831141446 72 132 2.0 4.0 0.00 0.00 0.00 87 1020.7
20260831135948 72 146 1.0 3.0 0.00 0.00 0.00 88 1020.6
20260831134445 72 140 2.0 4.0 0.00 0.00 0.00 88 1020.5
20260831132947 71 153 2.0 4.0 0.00 0.00 0.00 90 1020.3
20260831131446 71 146 1.0 4.0 0.00 0.00 0.00 91 1020.4
20260831125950 70 162 2.0 5.0 0.00 0.00 0.00 91 1020.5
20260831124448 70 141 2.0 5.0 0.00 0.00 0.00 92 1020.6
20260831122946 70 148 1.0 3.0 0.00 0.00 0.00 93 1020.5
20260831121446 70 152 2.0 4.0 0.00 0.00 0.00 94 1020.4
20260831115949 70 129 2.0 4.0 0.00 0.00 0.00 95 1020.3
20260831112947 70 146 2.0 4.0 0.00 0.00 0.00 96 1020.0
20260831105950 69 151 1.0 3.0 0.00 0.00 0.00 96 1019.5
20260831104447 69 145 1.0 3.0 0.00 0.00 0.00 95 1019.6
20260831102948 69 169 0.0 0.0 0.00 0.00 0.00 95 1019.7
20260831101446 69 170 0.0 0.0 0.00 0.00 0.00 95 1019.9
20260831095949 69 170 0.0 0.0 0.00 0.00 0.00 94 1019.6
20260831094447 70 170 0.0 0.0 0.00 0.00 0.00 94 1019.3
20260831092946 70 266 0.0 1.0 0.00 0.00 0.00 95 1019.2
20260831091446 70 146 1.0 3.0 0.00 0.00 0.00 95 1018.9
20260831085949 70 113 0.0 0.0 0.00 0.00 0.00 95 1018.8
20260831084447 70 101 0.0 1.0 0.00 0.00 0.00 94 1018.8
20260831082946 70 82 1.0 2.0 0.00 0.00 0.00 95 1018.7
20260831081447 70 113 0.0 1.0 0.00 0.00 0.00 95 1018.6
20260831075950 70 114 1.0 2.0 0.00 0.00 0.00 95 1018.6
20260831074447 70 111 1.0 3.0 0.00 0.00 0.00 96 1018.6
20260831072947 71 117 2.0 4.0 0.00 0.00 0.00 96 1018.5
20260831065950 71 65 1.0 2.0 0.00 0.00 0.00 97 1018.8
20260831064446 70 84 2.0 5.0 0.00 0.00 0.00 97 1018.8
20260831062947 70 88 0.0 2.0 0.00 0.00 0.00 96 1018.9
20260831061446 70 56 0.0 2.0 0.00 0.00 0.00 96 1019.1
20260831055950 70 56 0.0 3.0 0.00 0.00 0.00 96 1019.3
20260831054447 70 65 0.0 2.0 0.00 0.00 0.00 96 1019.3